Showing default

QIANFAN-21, 61554

Orbit data source: Space-Track

QIANFAN-21, 61554 is a Chinese payload satellite in LEO that was launched on Tue, 15 Oct 2024 UTC via a CHANG ZHENG 6A launch vehicle from the Taiyaun Space Center, China (TSC). Payload-class satellites include a variety of spacecraft equipped with specific instruments for various scientific and technological missions. These include communications satellites like Starlink; space stations such as the ISS; scientific satellites like the Hubble; Earth observation satellites from companies like Planet Labs, Umbra, and HawkEye 360; GPS; miniature CubeSats for education and research; and military/defense satellites.

Loading next visibility...
Identifier
61554, 2024-185C
Orbit
LEO
Country
Flag of CNCN / PRC
Related business
Manufacturer
GESIH/SECM
Mission
Partially operational Commercial Communications
Bus & Motor
QIANFAN, Unknown motor
Mass
267 kg wet, ~267 kg dry
Launch date (UTC)
2024-10-15 (2 years ago)
Launch vehicle
CHANG ZHENG 6A
Launch site
Taiyaun Space Center, China (TSC)
Object type
Payload
Rocket body
Debris
Shape & HBR
Box + 1 Pan, 5.0 m
Radar Cross Section
13.200 m², Large (>1 m²)

Expand to show TLE details & history
Last TLE update: 14 hours ago

TLE from 14 hours ago
0 QIANFAN-21
1 61554U 24185C   26202.58899877  .00000367  00000-0  15697-3 0  9991
2 61554  88.9727  51.1147 0011156  16.3824 343.7726 14.22885608101379
Epoch: 2026-07-21T14:08Z
TLE epoch observation values (Epoch: 2026-07-21T14:08:09.493Z)
Latitude
-0.00004°
Longitude
-100.28138°
Altitude
810.961 km
Speed
7.452 km/s
True Right ascension
03h 24m 27s
True Declination
0° 00' 00"
Sunlit
Object was in daylight at epoch
Visualization orbit readout
Latitude
Unknown
Longitude
Unknown
Altitude
Unknown
Speed
Unknown
Apparent Right ascension
Unknown
Apparent Declination
Unknown
Sunlit
N/A
Visualization observer readout
Local Sidereal Time
17:34:34
Azimuth
Unknown
Elevation
Unknown
Doppler factor
Unknown
Orbital elements
Apogee altitude
820.58 km
Perigee altitude
804.536 km
Semi-major axis
7,190.695 km
Eccentricity
0.00112
Inclination
88.9727°
RAAN
51.1147°
Arg. of periapsis
16.3824°
True anomaly
343.73683°
Mean anomaly
343.7726°
Eccentric anomaly
343.75472°
Mean motion
3.55948 °/min
Orbital period
101.14 mins
BSTAR
0.00015697
Loading maneuver chart data...
Computing Atmospheric mass density...
Loading historical data...
Loading historical data...
Loading historical data...
Loading historical data...
Loading historical data...
Loading historical data...
Loading historical data...

Documentation

Showing up to 5 results
|